Погода в Пуэбле-де-Санабриа

Испания     42°03′16″N   6°37′56″W
темп.,
°C
ветер,
м/с
пор.,
м/с
влажн.,
%
обл.,
%
осадки,
мм/ч
давл.,
гПа
погр.,
м
16 мая, вс
вс1623:00+11зюз51498100 0.2 10151202
02:00+11зюз51598100 0.8 10141352
05:00+11зюз51398100 0.7 10131164
08:00+11зюз41197100 0.9 10141063
11:00+11зюз4109596 0.3 1014844
14:00+11з5118365 0.7 10161083
17:00+13зсз7136673 0.1 10161314
20:00+11зсз5106865 0.1 10171122
17 мая, пн
пн1723:00+5сз2288100 0.0 102035
02:00+4сз3386100 0.0 102147
05:00+4сз2266100 0.0 102045
08:00+5ссз2258100 0.0 102159
11:00+12зюз133036 0.0 1020777
14:00+16зюз35319 0.0 10181460
17:00+17зюз563950 0.0 10181529
20:00+14з4656100 0.0 1018837
18 мая, вт
вт1823:00+10з2277100 0.0 102033
02:00+8з238498 0.0 102080
05:00+9зюз2589100 0.3 1019275
08:00+9зюз31092100 0.7 1019589
11:00+11зюз387765 0.2 1020922
14:00+15з585655 0.3 10201691
17:00+17зсз684362 0.1 10191925
20:00+13сз57562 0.1 10211446
19 мая, ср
ср1923:00+7сз3387100 0.0 102449
02:00+5ссз22905 0.0 102533
05:00+4ссз3385100 0.0 102648
08:00+4с2266100 0.0 102757
11:00+12всв0230100 0.0 1025946
14:00+18ююз1323100 0.0 10241529
17:00+18ссз22266 0.0 10231487
20:00+16с22375 0.0 1024634
20 мая, чт
чт2023:00+8с335624 0.0 102841
02:00+6всв116140 0.0 102915
05:00+4всв117894 0.0 102914
08:00+5всв12775 0.0 103085
11:00+12вюв22515 0.0 1027552
14:00+18юв323968 0.0 10251099
17:00+20ю323658 0.0 10231431
20:00+17юз2450100 0.0 1022307